Location: D�pe
(52.6057°N, 8.1808°E)
Time: 06:59:35
(UTC+00:00)

ATLAS 2AS CENTAUR R/B - Pass Details

Date: 29 October 2020
Orbit: 939 x 1273 km, 63.7° (Epoch: 23 November)

Event Time Altitude Azimuth Distance (km) Brightness Sun altitude
Rises 18:12:34 0° 312° (NW) 4,187 6.6 -20.2°
Reaches altitude 10° 18:15:26 10° 314° (NW) 3,185 5.9 -20.7°
Maximum altitude 18:23:07 77° 40° (NE) 1,193 2.8 -21.8°
Enters shadow 18:26:17 37° 120° (ESE) 1,686 3.2 -22.3°
